This is the latest recevied weather packets stored in our database for station/object M3YFM-13. If no packets are shown the sender has not sent any weather packets the latest 1 day(s).
| Time | Temp. | Humidity | Pressure | Rain* | Wind** | Luminosity | Snow |
|---|---|---|---|---|---|---|---|
| 1778059783 | 11.11° C | 58% | - | 0 mm | 0.89 m/s, 73° | - | - |
| 1778059483 | 11.11° C | 59% | - | 0 mm | 1.34 m/s, 114° | - | - |
| 1778059182 | 11.67° C | 60% | - | 0 mm | 1.34 m/s, 91° | - | - |
| 1778058882 | 10.56° C | 60% | - | 0 mm | 0.45 m/s, 73° | - | - |
| 1778058582 | 10.56° C | 61% | - | 0 mm | 0.89 m/s, 60° | - | - |
| 1778058281 | 10.56° C | 62% | - | 0 mm | 1.34 m/s, 55° | - | - |
| 1778057981 | 10° C | 62% | - | 0 mm | 0.89 m/s, 86° | - | - |
| 1778057681 | 10° C | 62% | - | 0 mm | 1.34 m/s, 76° | - | - |
| 1778057381 | 10° C | 62% | - | 0 mm | 1.79 m/s, 82° | - | - |
| 1778056179 | 10° C | 63% | - | 0 mm | 1.34 m/s, 87° | - | - |
| 1778055279 | 10° C | 64% | - | 0 mm | 0.89 m/s, 118° | - | - |
| 1778054977 | 9.44° C | 65% | - | 0 mm | 0.45 m/s, 148° | - | - |
| 1778054677 | 8.89° C | 65% | - | 0 mm | 0.89 m/s, 104° | - | - |
| 1778054377 | 9.44° C | 65% | - | 0 mm | 1.34 m/s, 100° | - | - |
| 1778054077 | 8.89° C | 66% | - | 0 mm | 1.79 m/s, 103° | - | - |
| 1778053776 | 8.89° C | 67% | - | 0 mm | 0.89 m/s, 105° | - | - |
| 1778053476 | 8.89° C | 67% | - | 0 mm | 1.34 m/s, 86° | - | - |
| 1778053176 | 8.89° C | 68% | - | 0 mm | 1.34 m/s, 98° | - | - |
| 1778052875 | 8.89° C | 69% | - | 0 mm | 1.34 m/s, 98° | - | - |
| 1778052575 | 8.89° C | 69% | - | 0 mm | 1.79 m/s, 87° | - | - |
| 1778052275 | 8.89° C | 70% | - | 0 mm | 1.79 m/s, 73° | - | - |
| 1778051975 | 8.33° C | 69% | - | 0 mm | 2.24 m/s, 104° | - | - |
| 1778051374 | 8.89° C | 71% | - | 0 mm | 1.34 m/s, 89° | - | - |
| 1778051074 | 8.89° C | 71% | - | 0 mm | 1.34 m/s, 68° | - | - |
| 1778050773 | 8.33° C | 71% | - | 0 mm | 1.34 m/s, 90° | - | - |
* Rain since midnight (hover to see other rain measurements)
** Current wind speed in m/s (hover to see current wind gust speed)